TimeCDT,TemperatureF,Dew PointF,Humidity,Sea Level PressureIn,VisibilityMPH,Wind Direction,Wind SpeedMPH,Gust SpeedMPH,PrecipitationIn,Events,Conditions,WindDirDegrees,DateUTC
12:53 AM,69.1,64.9,87,29.96,10.0,Calm,Calm,-,N/A,,Mostly Cloudy,0,2013-06-19 05:53:00
1:53 AM,69.1,64.9,87,29.95,10.0,Calm,Calm,-,N/A,,Mostly Cloudy,0,2013-06-19 06:53:00
2:53 AM,66.9,64.9,93,29.94,10.0,Calm,Calm,-,N/A,,Mostly Cloudy,0,2013-06-19 07:53:00
3:53 AM,66.9,64.9,93,29.95,10.0,Calm,Calm,-,N/A,,Mostly Cloudy,0,2013-06-19 08:53:00
4:53 AM,69.1,66.0,90,29.96,10.0,WNW,5.8,-,N/A,,Mostly Cloudy,290,2013-06-19 09:53:00
5:53 AM,68.0,66.0,93,29.98,7.0,Calm,Calm,-,N/A,,Mostly Cloudy,0,2013-06-19 10:53:00
6:53 AM,72.0,66.9,84,29.99,9.0,Calm,Calm,-,N/A,,Scattered Clouds,0,2013-06-19 11:53:00
7:53 AM,75.0,68.0,79,30.02,10.0,NNW,4.6,-,N/A,,Scattered Clouds,330,2013-06-19 12:53:00
8:53 AM,78.1,66.9,68,30.03,10.0,NNE,3.5,-,N/A,,Scattered Clouds,20,2013-06-19 13:53:00
9:53 AM,80.1,66.9,64,30.04,10.0,North,3.5,-,N/A,,Scattered Clouds,10,2013-06-19 14:53:00
10:53 AM,84.0,64.0,51,30.04,10.0,North,5.8,-,N/A,,Scattered Clouds,360,2013-06-19 15:53:00
11:53 AM,82.9,64.9,54,30.04,10.0,Calm,Calm,-,N/A,,Scattered Clouds,0,2013-06-19 16:53:00
12:53 PM,84.9,64.9,51,30.02,10.0,East,3.5,-,N/A,,Scattered Clouds,80,2013-06-19 17:53:00
1:53 PM,88.0,62.1,42,30.01,10.0,Variable,6.9,-,N/A,,Scattered Clouds,0,2013-06-19 18:53:00
2:53 PM,88.0,61.0,40,30.01,10.0,North,10.4,-,N/A,,Scattered Clouds,360,2013-06-19 19:53:00
3:53 PM,89.1,60.1,38,30.00,10.0,ENE,6.9,-,N/A,,Scattered Clouds,60,2013-06-19 20:53:00
4:53 PM,88.0,60.1,39,30.00,10.0,ESE,9.2,-,N/A,,Scattered Clouds,110,2013-06-19 21:53:00
5:53 PM,84.9,60.1,43,30.00,10.0,North,6.9,-,N/A,,Mostly Cloudy,10,2013-06-19 22:53:00
6:53 PM,84.9,63.0,48,30.01,10.0,East,5.8,-,N/A,,Scattered Clouds,80,2013-06-19 23:53:00
7:53 PM,82.0,63.0,52,30.01,10.0,ENE,4.6,-,N/A,,Scattered Clouds,60,2013-06-20 00:53:00
8:53 PM,80.1,63.0,56,30.02,10.0,East,4.6,-,N/A,,Scattered Clouds,80,2013-06-20 01:53:00
9:53 PM,78.1,64.9,64,30.04,10.0,East,4.6,-,N/A,,Partly Cloudy,80,2013-06-20 02:53:00
10:53 PM,75.9,66.0,71,30.05,10.0,Calm,Calm,-,N/A,,Clear,0,2013-06-20 03:53:00
11:53 PM,72.0,66.0,81,30.07,10.0,Calm,Calm,-,N/A,,Clear,0,2013-06-20 04:53:00